| time (UTC) | temp C | wind direction | speed KPH | gust KPH | rain 1hr cm | rain 24hr cm | rain mn cm | humidity % | barometer mb |
| 20260507221544 | 26 | 317 | 0.0 | 4.8 | 0.00 | 0.03 | 0.00 | 23 | 1010.0 |
| 20260507220041 | 25 | 232 | 0.0 | 1.6 | 0.00 | 0.03 | 0.00 | 23 | 1010.3 |
| 20260507214552 | 25 | 232 | 0.0 | 8.0 | 0.00 | 0.03 | 0.00 | 22 | 1010.7 |
| 20260507213034 | 25 | 26 | 0.0 | 0.0 | 0.00 | 0.00 | 0.00 | 19 | 1011.0 |
| 20260507211531 | 24 | 30 | 0.0 | 6.4 | 0.00 | 0.03 | 0.00 | 18 | 1011.5 |
| 20260507210039 | 24 | 30 | 0.0 | 6.4 | 0.00 | 0.03 | 0.00 | 18 | 1012.0 |
| 20260507204525 | 23 | 30 | 0.0 | 11.3 | 0.00 | 0.03 | 0.00 | 20 | 1012.4 |
| 20260507203021 | 23 | 13 | 0.0 | 1.6 | 0.00 | 0.03 | 0.00 | 22 | 1012.8 |
| 20260507201517 | 22 | 13 | 1.6 | 6.4 | 0.00 | 0.03 | 0.00 | 20 | 1013.2 |
| 20260507200018 | 22 | 19 | 0.0 | 6.4 | 0.00 | 0.03 | 0.00 | 22 | 1013.5 |
| 20260507194512 | 22 | 24 | 0.0 | 4.8 | 0.00 | 0.13 | 0.00 | 21 | 1013.8 |
| 20260507193007 | 21 | 24 | 1.6 | 6.4 | 0.00 | 0.13 | 0.00 | 23 | 1014.1 |
| 20260507191505 | 21 | 17 | 0.0 | 4.8 | 0.00 | 0.13 | 0.00 | 30 | 1014.3 |
| 20260507190003 | 20 | 15 | 1.6 | 8.0 | 0.00 | 0.13 | 0.00 | 25 | 1014.8 |
| 20260507184606 | 20 | 360 | 3.2 | 8.0 | 0.00 | 0.23 | 0.00 | 25 | 1015.1 |
| 20260507183055 | 20 | 29 | 1.6 | 11.3 | 0.00 | 0.23 | 0.00 | 29 | 1015.5 |
| 20260507181552 | 19 | 291 | 3.2 | 16.1 | 0.00 | 0.23 | 0.00 | 29 | 1015.9 |
| 20260507180051 | 18 | 360 | 1.6 | 14.5 | 0.00 | 0.23 | 0.00 | 31 | 1016.2 |
| 20260507174549 | 18 | 277 | 3.2 | 17.7 | 0.00 | 0.36 | 0.00 | 31 | 1016.6 |
| 20260507173042 | 17 | 195 | 4.8 | 14.5 | 0.00 | 0.36 | 0.00 | 33 | 1017.0 |
| 20260507171546 | 17 | 282 | 3.2 | 20.9 | 0.00 | 0.36 | 0.00 | 34 | 1017.1 |
| 20260507170039 | 17 | 323 | 3.2 | 14.5 | 0.00 | 0.36 | 0.00 | 36 | 1017.4 |
| 20260507164532 | 16 | 33 | 4.8 | 14.5 | 0.00 | 0.46 | 0.00 | 38 | 1017.4 |
| 20260507163027 | 15 | 26 | 4.8 | 11.3 | 0.00 | 0.46 | 0.00 | 41 | 1017.7 |
| 20260507161523 | 15 | 360 | 3.2 | 14.5 | 0.00 | 0.46 | 0.00 | 41 | 1017.8 |
| 20260507160024 | 13 | 336 | 3.2 | 11.3 | 0.00 | 0.46 | 0.00 | 44 | 1018.3 |
| 20260507154528 | 13 | 355 | 3.2 | 9.7 | 0.00 | 0.48 | 0.00 | 42 | 1018.4 |
| 20260507153028 | 12 | 355 | 3.2 | 11.3 | 0.00 | 0.48 | 0.00 | 45 | 1018.8 |
| 20260507151507 | 11 | 17 | 3.2 | 8.0 | 0.00 | 0.48 | 0.00 | 46 | 1019.1 |
| 20260507150003 | 10 | 294 | 4.8 | 12.9 | 0.00 | 0.48 | 0.00 | 48 | 1019.3 |
| 20260507144603 | 10 | 42 | 3.2 | 12.9 | 0.00 | 0.51 | 0.00 | 54 | 1019.2 |
| 20260507143110 | 8 | 48 | 1.6 | 8.0 | 0.00 | 0.51 | 0.00 | 56 | 1019.2 |
| 20260507141552 | 8 | 47 | 1.6 | 8.0 | 0.00 | 0.51 | 0.00 | 58 | 1019.4 |
| 20260507140047 | 7 | 44 | 0.0 | 11.3 | 0.00 | 0.51 | 0.00 | 63 | 1019.7 |
| 20260507134543 | 5 | 360 | 0.0 | 4.8 | 0.00 | 0.53 | 0.00 | 69 | 1019.8 |
| 20260507133038 | 5 | 355 | 0.0 | 6.4 | 0.00 | 0.53 | 0.00 | 72 | 1019.9 |
| 20260507131538 | 3 | 5 | 1.6 | 6.4 | 0.00 | 0.53 | 0.00 | 78 | 1019.9 |
| 20260507130038 | 2 | 350 | 0.0 | 8.0 | 0.00 | 0.53 | 0.00 | 84 | 1019.8 |
| 20260507124529 | 1 | 348 | 0.0 | 1.6 | 0.00 | 0.58 | 0.00 | 88 | 1019.7 |
| 20260507123025 | 1 | 348 | 0.0 | 3.2 | 0.00 | 0.58 | 0.00 | 89 | 1019.8 |
| 20260507121522 | 1 | 348 | 0.0 | 6.4 | 0.00 | 0.58 | 0.00 | 93 | 1019.6 |
| 20260507120022 | 0 | 316 | 0.0 | 1.6 | 0.00 | 0.58 | 0.00 | 95 | 1019.6 |
| 20260507114517 | 0 | 316 | 0.0 | 4.8 | 0.00 | 0.61 | 0.00 | 95 | 1019.6 |
| 20260507113015 | -1 | 312 | 0.0 | 0.0 | 0.00 | 0.61 | 0.00 | 94 | 1019.9 |
| 20260507111514 | -1 | 312 | 0.0 | 0.0 | 0.00 | 0.61 | 0.00 | 94 | 1019.7 |
| 20260507110013 | -1 | 312 | 0.0 | 0.0 | 0.00 | 0.61 | 0.00 | 93 | 1019.9 |
| 20260507104511 | -1 | 312 | 0.0 | 0.0 | 0.00 | 0.61 | 0.00 | 93 | 1019.9 |
| 20260507103020 | -1 | 312 | 0.0 | 0.0 | 0.00 | 0.61 | 0.00 | 93 | 1020.1 |
| 20260507101508 | -1 | 312 | 0.0 | 0.0 | 0.00 | 0.61 | 0.00 | 93 | 1020.1 |
| 20260507100006 | -1 | 312 | 0.0 | 0.0 | 0.00 | 0.61 | 0.00 | 93 | 1020.4 |
| 20260507094504 | -1 | 312 | 0.0 | 3.2 | 0.00 | 0.64 | 0.00 | 93 | 1020.4 |
| 20260507093004 | 0 | 312 | 0.0 | 1.6 | 0.00 | 0.64 | 0.00 | 93 | 1020.7 |
| 20260507091503 | 0 | 312 | 0.0 | 1.6 | 0.00 | 0.64 | 0.00 | 93 | 1020.9 |
| 20260507090003 | 0 | 312 | 0.0 | 1.6 | 0.00 | 0.64 | 0.00 | 93 | 1020.7 |
| 20260507084602 | 0 | 312 | 0.0 | 3.2 | 0.00 | 0.69 | 0.00 | 94 | 1020.7 |
| 20260507083102 | 0 | 312 | 0.0 | 4.8 | 0.00 | 0.69 | 0.00 | 94 | 1020.7 |
| 20260507081556 | 0 | 310 | 0.0 | 1.6 | 0.00 | 0.69 | 0.00 | 93 | 1020.7 |
| 20260507080108 | 0 | 237 | 0.0 | 0.0 | 0.00 | 0.69 | 0.00 | 93 | 1020.9 |
| 20260507074554 | 0 | 237 | 0.0 | 0.0 | 0.00 | 0.71 | 0.00 | 93 | 1020.8 |
| 20260507073051 | 0 | 237 | 0.0 | 0.0 | 0.00 | 0.71 | 0.00 | 93 | 1021.0 |
| 20260507071607 | 0 | 237 | 0.0 | 1.6 | 0.00 | 0.71 | 0.00 | 93 | 1021.2 |
| 20260507070051 | 0 | 237 | 0.0 | 0.0 | 0.00 | 0.71 | 0.00 | 93 | 1021.1 |
| 20260507064549 | 0 | 237 | 0.0 | 0.0 | 0.00 | 0.71 | 0.00 | 93 | 1021.2 |
| 20260507063047 | 0 | 237 | 0.0 | 0.0 | 0.00 | 0.71 | 0.00 | 93 | 1021.4 |
| 20260507061545 | 0 | 237 | 0.0 | 0.0 | 0.00 | 0.71 | 0.00 | 93 | 1021.2 |
| 20260507060043 | 0 | 237 | 0.0 | 0.0 | 0.00 | 0.71 | 0.00 | 92 | 1021.2 |
| 20260507054541 | 0 | 237 | 0.0 | 0.0 | 0.00 | 0.71 | 0.71 | 92 | 1021.0 |
| 20260507053109 | 0 | 237 | 0.0 | 0.0 | 0.00 | 0.71 | 0.71 | 92 | 1020.9 |
| 20260507051543 | 0 | 237 | 0.0 | 0.0 | 7.98 | 0.00 | 0.71 | 92 | 1020.9 |
| 20260507050042 | 0 | 237 | 0.0 | 0.0 | 0.00 | 0.71 | 0.71 | 92 | 1021.0 |
| 20260507044537 | 1 | 237 | 0.0 | 0.0 | 0.00 | 0.71 | 0.71 | 91 | 1021.0 |
| 20260507043037 | 1 | 237 | 0.0 | 0.0 | 0.00 | 0.71 | 0.71 | 91 | 1020.9 |
| 20260507041533 | 1 | 237 | 0.0 | 0.0 | 0.00 | 0.71 | 0.71 | 91 | 1020.8 |
| 20260507040033 | 1 | 237 | 0.0 | 0.0 | 0.00 | 0.71 | 0.71 | 90 | 1020.6 |
| 20260507034537 | 1 | 237 | 0.0 | 0.0 | 0.00 | 0.79 | 0.71 | 90 | 1020.6 |
| 20260507033040 | 2 | 237 | 0.0 | 0.0 | 0.00 | 0.79 | 0.71 | 89 | 1020.6 |
| 20260507031531 | 2 | 237 | 0.0 | 0.0 | 0.00 | 0.79 | 0.71 | 88 | 1020.7 |
| 20260507030031 | 2 | 237 | 0.0 | 0.0 | 0.00 | 0.79 | 0.71 | 87 | 1020.6 |
| 20260507024533 | 3 | 237 | 0.0 | 0.0 | 0.00 | 0.84 | 0.71 | 86 | 1020.4 |
| 20260507023034 | 3 | 237 | 0.0 | 0.0 | 0.00 | 0.84 | 0.71 | 84 | 1020.3 |
| 20260507021531 | 4 | 237 | 0.0 | 0.0 | 0.00 | 0.84 | 0.71 | 83 | 1020.2 |
| 20260507020028 | 5 | 237 | 0.0 | 0.0 | 0.00 | 0.84 | 0.71 | 81 | 1020.3 |
| 20260507014528 | 6 | 237 | 0.0 | 0.0 | 0.00 | 0.91 | 0.71 | 80 | 1020.3 |
| 20260507013027 | 6 | 237 | 0.0 | 0.0 | 0.00 | 0.91 | 0.71 | 79 | 1020.3 |
| 20260507011533 | 7 | 237 | 0.0 | 0.0 | 0.00 | 0.91 | 0.71 | 78 | 1020.3 |
| 20260507010027 | 7 | 237 | 0.0 | 3.2 | 0.00 | 0.91 | 0.71 | 80 | 1020.1 |
| 20260507004535 | 7 | 238 | 0.0 | 0.0 | 0.00 | 1.04 | 0.71 | 79 | 1020.1 |
| 20260507003025 | 7 | 236 | 0.0 | 1.6 | 0.00 | 1.04 | 0.71 | 79 | 1020.1 |
| 20260507001524 | 8 | 237 | 0.0 | 1.6 | 0.00 | 1.04 | 0.71 | 77 | 1020.2 |
| 20260507000023 | 8 | 236 | 0.0 | 1.6 | 0.00 | 1.04 | 0.71 | 80 | 1020.3 |
| 20260506234519 | 7 | 236 | 0.0 | 4.8 | 0.03 | 1.09 | 0.71 | 84 | 1020.1 |
| 20260506233015 | 6 | 236 | 0.0 | 6.4 | 0.03 | 1.09 | 0.71 | 82 | 1020.1 |
| 20260506231513 | 6 | 234 | 1.6 | 6.4 | 0.03 | 1.09 | 0.71 | 87 | 1020.3 |
| 20260506230010 | 5 | 64 | 0.0 | 4.8 | 0.03 | 1.09 | 0.71 | 90 | 1020.2 |
| 20260506224510 | 5 | 63 | 1.6 | 4.8 | 0.00 | 1.07 | 0.71 | 87 | 1020.3 |
| 20260506223008 | 6 | 63 | 0.0 | 0.0 | 0.00 | 1.07 | 0.71 | 89 | 1020.2 |